Location: Newark
(40.9833°N, 0.0333°W)
Time: 06:00:29
(UTC+00:00)

Vanguard 2 Rocket - Pass Details

Date: 02 November 2020
Orbit: 554 x 3326 km, 32.9° (Epoch: 24 November)

Event Time Altitude Azimuth Distance (km) Brightness Sun altitude
Rises 22:21:04 0° 251° (WSW) 3,145 - -58.5°
Reaches altitude 10° 22:25:49 10° 210° (SSW) 2,682 - -59.1°
Maximum altitude 22:26:55 10° 200° (SSW) 2,768 - -59.2°
Drops below altitude 10° 22:28:05 10° 190° (S) 2,932 - -59.4°
Sets 22:35:02 0° 155° (SSE) 4,711 - -60.2°
